www.pogodaiklimat.ru

Погода и климат >> Архив погоды >> Австралия >> Западная Австралия >> Телфер


ПОГОДА в Телфере

  • Прогноз погоды в Телфере
  • Монитор погоды в Телфере

АРХИВ ПОГОДЫ в Телфере

Время (UTC), дата Ветер
(напр.,м/с)
 
Видим.   Явления Облачность Т
(С)
Тd
(С)
f
(%)
Тe
(С)
Тes
(С)
Комфортность P
(гПа)
Po
(гПа)
Тmin
(С)
Tmax
(С)
R
(мм)
R24
(мм)
S
(см)
19 17.05 ЮВ 7 н/о н/о +18.7 +0.3 29 +18 +18 1015.0 981.5
21 17.05 ЮВ 9 н/о н/о +17.1 +5.1 45 +16 +16 1015.9 982.3
22 17.05 ЮВ 7 н/о н/о +15.9 +6.1 52 +14 +14 1016.5 982.9
00 18.05 ЮВ 10 н/о н/о +16.7 +6.2 50 +15 +15 1017.8 984.2
01 18.05 ЮВ 8 н/о н/о +18.2 +6.1 45 +17 +17 1018.2 984.6 +15.6
03 18.05 ЮВ 7 н/о н/о +22.7 +5.6 33 +23 +23 комфорт 1017.4 983.8
04 18.05 ЮВ 7 н/о н/о +23.5 +5.4 31 +23 +23 комфорт 1016.6 983.0
06 18.05 ЮВ 6 н/о н/о +26.5 +4.9 25 +26 +26 жарко 1014.9 981.4
07 18.05 ЮВ 6 н/о н/о +27.5 +4.5 23 +26 +26 жарко 1014.7 981.2
09 18.05 ЮВ 5 н/о н/о +25.8 +3.7 24 +25 +25 комфорт 1015.5 982.0
10 18.05 ЮВ 3 н/о н/о +22.7 +3.3 28 +23 +23 комфорт 1016.2 982.6
12 18.05 ЮВ 4 н/о н/о +20.1 +2.9 32 +21 +21 комфорт 1017.5 983.9
13 18.05 ЮВ 5 н/о н/о +20.1 +2.9 32 +20 +20 1018.0 984.4 +27.7
15 18.05 ЮВ 6 н/о н/о +18.5 +0.6 30 +18 +18 1018.2 984.6
16 18.05 ЮВ 7 н/о н/о +17.6 -0.2 30 +17 +17 1017.9 984.3
18 18.05 ЮВ 7 н/о н/о +15.7 -0.9 32 +14 +14 1018.0 984.4
19 18.05 ЮВ 7 н/о н/о +14.5 -1.2 34 +13 +13 1017.8 984.2
21 18.05 ЮВ 6 н/о н/о +13.5 -1.6 35 +12 +12 1017.8 984.2
22 18.05 ЮВ 6 н/о н/о +13.2 -1.9 35 +11 +11 1018.4 984.8
00 19.05 ЮВ 7 н/о н/о +16.5 -1.6 29 +15 +15 1019.5 985.8
01 19.05 ЮВ 8 н/о н/о +19.2 -0.7 26 +19 +19 1019.9 986.2 +13.1
03 19.05 ЮВ 6 н/о н/о +23.8 +0.2 21 +23 +23 комфорт 1019.0 985.3
04 19.05 ЮВ 6 н/о н/о +25.9 +0.5 19 +24 +24 комфорт 1018.1 984.5
06 19.05 ЮВ 5 н/о н/о +28.9 -2.3 13 +26 +26 жарко 1016.2 982.6
07 19.05 В 5 н/о н/о +29.6 -2.8 12 +26 +26 жарко 1015.9 982.3
09 19.05 В 4 н/о н/о +28.0 -5.2 11 +25 +25 комфорт 1016.1 982.5
10 19.05 ЮВ 3 н/о н/о +24.3 -4.9 14 +22 +22 комфорт 1016.3 982.7
12 19.05 ЮВ 4 н/о н/о +21.3 -4.7 17 +20 +20 1017.7 984.1
13 19.05 ЮВ 4 н/о н/о +19.7 -3.9 20 +20 +20 1017.8 984.2 +30.3
15 19.05 ЮВ 5 н/о н/о +19.1 -4.4 20 +19 +19 1017.8 984.2
16 19.05 ЮВ 6 н/о н/о +19.0 -5.1 19 +19 +19 1017.7 984.1
18 19.05 ЮВ 6 н/о н/о +18.8 -6.0 18 +18 +18 1017.3 983.7
19 19.05 ЮВ 5 н/о н/о +17.3 -6.5 19 +17 +17 1017.1 983.5
21 19.05 ЮВ 6 н/о н/о +15.9 -7.0 20 +15 +15 1017.3 983.7
22 19.05 ЮВ 5 н/о н/о +14.2 -7.2 22 +13 +13 1018.0 984.4
00 20.05 ЮВ 5 н/о н/о +19.7 -7.6 15 +19 +19 1019.2 985.5
01 20.05 В 6 н/о н/о +24.5 -9.1 10 +22 +22 комфорт 1019.5 985.8 +12.7
03 20.05 В 6 н/о н/о +29.1 -8.5 8 +25 +25 комфорт 1018.5 984.9
04 20.05 В 5 н/о н/о +31.8 -6.5 8 +28 +28 жарко 1017.4 983.8
06 20.05 В 3 н/о н/о +33.4 -1.0 11 +30 +30 жарко 1015.6 982.1
07 20.05 СВ 4 н/о н/о +33.4 -2.3 10 +30 +30 жарко 1015.6 982.1
09 20.05 Ю 3 н/о н/о +31.2 -4.0 10 +28 +28 жарко 1016.2 982.6
10 20.05 Ю 3 н/о н/о +27.9 -3.0 13 +25 +25 комфорт 1016.7 983.1
12 20.05 Ю 4 н/о н/о +26.1 -3.5 14 +24 +24 комфорт 1017.7 984.1
13 20.05 ЮВ 4 н/о н/о +19.4 -4.1 20 +19 +19 1017.8 984.2 +33.9
15 20.05 Ю 4 н/о н/о +18.0 -4.6 21 +18 +18 1017.5 983.9
16 20.05 ЮВ 4 н/о н/о +17.0 -4.8 22 +17 +17 1017.4 983.8
18 20.05 ЮВ 4 н/о н/о +16.8 -5.0 22 +16 +16 1017.0 983.4
19 20.05 ЮВ 4 н/о н/о +15.9 -4.6 24 +15 +15 1016.7 983.1
21 20.05 ЮВ 4 н/о н/о +15.6 -5.4 23 +15 +15 1016.9 983.3
22 20.05 ЮВ 4 н/о н/о +15.1 -5.3 24 +14 +14 1017.8 984.2
00 21.05 ЮВ 4 н/о н/о +22.4 -6.4 14 +21 +21 комфорт 1019.0 985.3
01 21.05 В 6 н/о 5/0
[]
+26.9 -7.2 10 +24 +26 комфорт 1019.3 985.6 +13.9
03 21.05 В 6 н/о н/о +32.0 -6.3 8 +28 +28 жарко 1018.0 984.4
04 21.05 В 7 н/о н/о +33.3 -5.4 8 +29 +29 жарко 1017.1 983.5
06 21.05 В 6 н/о н/о +33.8 -3.5 9 +30 +30 жарко 1015.7 982.2
07 21.05 ЮВ 5 н/о 1/0
[]
+33.9 -2.0 10 +30 +32 жарко 1015.6 982.1
09 21.05 ЮВ 3 н/о н/о +31.4 +0.7 14 +28 +28 жарко 1016.3 982.7
10 21.05 ЮВ 3 н/о н/о +27.9 +0.6 17 +26 +26 жарко 1017.0 983.4
12 21.05 ЮВ 4 н/о н/о +25.2 +0.7 20 +24 +24 комфорт 1018.2 984.6
13 21.05 ЮВ 4 н/о н/о +25.3 0.0 19 +24 +24 комфорт 1018.2 984.6 +34.9
15 21.05 Ю 5 н/о н/о +25.5 +0.9 20 +24 +24 комфорт 1018.2 984.6
16 21.05 ЮВ 5 н/о н/о +24.0 +0.4 21 +23 +23 комфорт 1018.3 984.7
18 21.05 ЮВ 5 н/о н/о +22.3 -3.9 17 +21 +21 комфорт 1017.8 984.2
19 21.05 ЮВ 6 н/о н/о +22.0 -4.9 16 +21 +21 комфорт 1017.5 983.9
21 21.05 ЮВ 5 н/о н/о +20.3 -4.8 18 +20 +20 1018.0 984.4
22 21.05 ЮВ 5 н/о н/о +19.9 -4.4 19 +19 +19 1018.6 985.0
00 22.05 ЮВ 5 н/о н/о +23.3 -3.1 17 +22 +22 комфорт 1019.7 986.0
01 22.05 ЮВ 4 н/о н/о +27.2 +3.0 21 +26 +26 жарко 1020.1 986.4 +19.4
03 22.05 СВ 5 н/о н/о +31.4 +7.8 23 +30 +30 жарко 1019.3 985.6
04 22.05 В 5 н/о н/о +33.1 +9.8 24 +32 +32 жарко 1018.0 984.4
06 22.05 ЮВ 3 н/о н/о +33.8 +9.8 23 +33 +33 жарко 1016.1 982.5
07 22.05 В 3 н/о 1/0
[]
+34.3 +9.5 22 +33 +37 жарко 1016.1 982.5
09 22.05 В 3 н/о н/о +32.6 +9.4 24 +32 +32 жарко 1016.1 982.5
10 22.05 ЮВ 3 н/о н/о +29.8 +8.2 26 +29 +29 жарко 1016.7 983.1
12 22.05 ЮВ 4 н/о н/о +26.2 +8.2 32 +26 +26 жарко 1017.5 983.9
13 22.05 ЮВ 4 н/о н/о +25.7 +7.8 32 +26 +26 жарко 1017.7 984.1 +35.1
15 22.05 ЮВ 4 н/о н/о +25.5 +7.1 31 +25 +25 комфорт 1018.1 984.5
16 22.05 ЮВ 5 н/о 1/0
[]
+25.4 +7.1 31 +25 +25 комфорт 1017.9 984.3
18 22.05 ЮВ 4 н/о н/о +24.2 +7.4 34 +24 +24 комфорт 1017.7 984.1
19 22.05 ЮВ 4 н/о 9/0
[]
+23.8 +7.0 34 +24 +24 комфорт 1017.8 984.2
21 22.05 ЮВ 3 н/о н/о +21.2 +7.1 40 +22 +22 комфорт 1018.6 985.0
22 22.05 ЮВ 4 н/о 8/0
[]
+21.5 +7.0 39 +22 +22 комфорт 1019.2 985.5
00 23.05 В 4 н/о н/о +26.3 +6.9 29 +26 +26 жарко 1020.5 986.8
01 23.05 СВ 5 н/о н/о +28.8 +7.4 26 +28 +28 жарко 1020.9 987.2 +20.4
03 23.05 СВ 6 н/о н/о +32.1 +6.3 20 +30 +30 жарко 1019.7 986.0
04 23.05 СВ 6 н/о н/о +33.1 +5.6 18 +31 +31 жарко 1018.5 984.9
06 23.05 В 4 н/о н/о +33.6 +6.0 18 +31 +31 жарко 1017.2 983.6
07 23.05 В 4 н/о н/о +33.7 +6.1 18 +32 +32 жарко 1016.8 983.2
09 23.05 В 4 н/о н/о +31.8 +5.3 19 +30 +30 жарко 1017.4 983.8
10 23.05 ЮВ 3 н/о н/о +28.2 +5.1 23 +27 +27 жарко 1017.6 984.0
12 23.05 ЮВ 4 н/о н/о +25.2 +5.4 28 +25 +25 комфорт 1018.9 985.2
13 23.05 ЮВ 4 н/о н/о +24.4 +5.2 29 +24 +24 комфорт 1018.9 985.2 +34.4
15 23.05 В 3 н/о н/о +23.2 +4.7 30 +23 +23 комфорт 1018.7 985.1
16 23.05 ЮВ 2 н/о н/о +22.4 +4.5 31 +23 +23 комфорт 1018.3 984.7
18 23.05 В 2 н/о н/о +21.3 +4.0 32 +22 +22 комфорт 1017.7 984.1
19 23.05 В 2 н/о н/о +20.9 +4.5 34 +22 +22 комфорт 1017.5 983.9
21 23.05 В 2 н/о н/о +19.2 +3.8 36 +20 +20 1017.6 984.0
22 23.05 В 3 н/о н/о +18.7 +3.7 37 +19 +19 1017.9 984.3
00 24.05 СВ 3 н/о н/о +25.0 +4.2 26 +24 +24 комфорт 1019.1 985.4
01 24.05 СВ 5 н/о н/о +28.3 +3.9 21 +27 +27 жарко 1019.3 985.6 +18.6
03 24.05 В 6 н/о н/о +31.7 +2.8 16 +29 +29 жарко 1018.2 984.6
04 24.05 СВ 5 н/о н/о +32.5 +2.5 15 +30 +30 жарко 1017.1 983.5
06 24.05 ЮВ 5 н/о н/о +33.0 +2.9 15 +30 +30 жарко 1015.2 981.7
07 24.05 ЮВ 5 н/о 1/0
[]
+33.3 +2.2 14 +30 +32 жарко 1015.2 981.7
09 24.05 ЮВ 5 н/о н/о +31.0 +1.4 15 +28 +28 жарко 1015.7 982.2
10 24.05 ЮВ 3 н/о н/о +27.3 +1.7 19 +25 +25 комфорт 1016.5 982.9
12 24.05 Ю 4 н/о н/о +26.4 +3.0 22 +25 +25 комфорт 1017.7 984.1
13 24.05 Ю 4 н/о н/о +25.1 +3.1 24 +24 +24 комфорт 1017.9 984.3 +33.9
15 24.05 ЮВ 3 н/о н/о +21.4 +2.2 28 +21 +21 комфорт 1017.3 983.7
16 24.05 ЮВ 3 н/о н/о +20.6 +2.0 29 +21 +21 комфорт 1016.9 983.3
18 24.05 ЮВ 4 н/о н/о +17.7 +1.2 33 +18 +18 1016.6 983.0

 

Местоположение метеостанции Телфер (Западная Австралия, Австралия): широта -21.71 долгота 122.21 высота над уровнем моря 292 м.

В архиве по умолчанию представлена погода в Телфере за последнюю неделю. Архивные данные за месяц целиком и за предыдущие месяцы, начиная с января 2011 года, Вы можете получить, выбрав интересующий диапазон дат из раскрывающегося списка и нажав кнопку "Ввод!".


*Определитесь, кто Вы:
робот инопланетянин человек

Внимание! Время в таблицах - всемирное. Для получения местного времени необходимо прибавить поправку, которая равна 8 ч.

Смотрите также архив погоды в соседних городах и на ближайших метеорологических станциях:

Погода в Марбл-баре (Западная Австралия, Австралия) (261 км)
Погода в Мандоре (Западная Австралия, Австралия) (262 км)
Погода в Ньюмане (Западная Австралия, Австралия) (311 км)
Погода в Порт-Хедленде Apardoo (Западная Австралия, Австралия) (401 км)
Погода в Бруме (Западная Австралия, Австралия) (418 км)
Погода в Робак Запад (Западная Австралия, Австралия) (424 км)
Погода в Параберду (Западная Австралия, Австралия) (486 км)
Погода на Базе ВВС Curtin (Западная Австралия, Австралия) (489 км)
Погода в Дерби (Северная территория, Австралия) (507 км)
Погода в Фицрой-Кроссинге (Западная Австралия, Австралия) (526 км)

Пояснения к столбцам:

Ветер - указаны скорость ветра в м/с - средняя за 10 мин, порывы в срок и между сроками (в фигурных скобках) и направление, откуда дует ветер: С - северный, СВ - северо-восточный, В - восточный, ЮВ - юго-восточный, Ю - южный, ЮЗ - юго-западный, З - западный, СЗ - северо-западный.
Видимость - горизонтальная дальность видимости в метрах или километрах. При видимости от 1 до 10 км при отсутствии осадков обычно наблюдается дымка, при ухудшении видимости до 1 км и менее - туман. В сухую погоду видимость может ухудшаться дымом, пылью или мглою.
Явления - указаны атмосферные явления, наблюдавшиеся в срок или в последний час перед сроком; фигурными скобками обозначены явления, наблюдавшиеся между сроками (за 1-3 часа до срока); квадратными скобками обозначены град или гололедные отложения с указанием их диаметра в мм.
Облачность - указаны через наклонную черту общая и нижняя облачность в баллах и высота нижней границы облаков в метрах; квадратными скобками обозначены формы облаков: Ci - перистые, Cs - перисто-слоистые, Cc - перисто-кучевые, Ac - высококучевые, As - высокослоистые, Sc - слоисто-кучевые, Ns - слоисто-дождевые, Cu - кучевые, Cb - кучево-дождевые. Подробнее классификацию облаков см. в Атласе облаков (PDF).
T - Температура воздуха - температура, измеренная на высоте 2 м над землей.
Td - Температура точки росы - температура, при понижении до которой содержащийся в воздухе водяной пар достигнет насыщения.
f - Относительная влажность воздуха - влажноcть воздуха, измеренная на высоте 2 м над землей.
Te - Эффективная температура - температура, которую ощущает одетый по сезону человек в тени. Характеристика душности погоды. При расчете учитывается влияние влажности воздуха и скорости ветра на теплоощущения человека.
Tes - Эффективная температура на солнце - температура, которую ощущает человек, с поправкой на солнечный нагрев. Характеристика знойности погоды. Зависит от высоты солнца над горизонтом, облачности и скорости ветра. Ночью, в пасмурную погоду, а также при ветре 12 м/с и более поправка равна нулю.
P - Атмосферное давление - приведенное к уровню моря атмосферное давление.
Po - Атмосферное давление - измеренное на уровне метеостанции атмосферное давление.
Tmin - Минимальная температура - минимум температуры воздуха на высоте 2 м над землей.
Tmax - Максимальная температура - максимум температуры воздуха на высоте 2 м над землей.
R - Количество осадков - Количество выпавших осадков за период времени, мм. При наведении курсора мыши на число - период времени, за который выпало указанное количество осадков.
R24 - Количество осадков - Количество выпавших осадков за 24 часа, мм.
S - Снежный покров - Высота снежного покрова, см. При наведении курсора мыши на число - состояние снежного покрова и степень покрытия местности в баллах.